When you browse on this site, cookies collect data to enhance your experience and personalize the content and advertising you see.
Visit our Privacy Policy to learn more. By continuing to use the site, you agree to this use of cookies and data.
  • In Belgium
  • List of Countries
  • For 7 days
  • Water Temperature
  • Satellite Maps
  • Weather Map
  • Weather Widgets
  • user-avatar
    Login

    Hourly Weather Golden Sands

    Today, 23 March, Saturday

    Time Temperature Precipitation Wind Pressure Humidity
    00:00 +8°C° 0 mm 4 mps 768 mmHg 65%
    01:00 +8°C° 0 mm 4 mps 768 mmHg 63%
    02:00 +10°C° 0 mm 4 mps 768 mmHg 61%
    03:00 +10°C° 0 mm 4 mps 767 mmHg 66%
    04:00 +9°C° 0 mm 5 mps 767 mmHg 70%
    05:00 +9°C° 0 mm 5 mps 767 mmHg 75%
    06:00 +9°C° 0 mm 5 mps 767 mmHg 73%
    07:00 +9°C° 0 mm 5 mps 767 mmHg 72%
    08:00 +9°C° 0 mm 5 mps 767 mmHg 71%
    09:00 +10°C° 0 mm 5 mps 767 mmHg 66%
    10:00 +10°C° 0 mm 5 mps 767 mmHg 62%
    11:00 +10°C° 0 mm 5 mps 767 mmHg 57%
    12:00 +10°C° 0 mm 5 mps 767 mmHg 52%
    13:00 +12°C° 0 mm 5 mps 767 mmHg 48%
    14:00 +12°C° 0 mm 4 mps 767 mmHg 43%
    15:00 +12°C° 0 mm 4 mps 767 mmHg 42%
    16:00 +11°C° 0 mm 4 mps 767 mmHg 42%
    17:00 +10°C° 0 mm 5 mps 767 mmHg 42%
    18:00 +10°C° 0 mm 4 mps 767 mmHg 48%
    19:00 +7°C° 0 mm 4 mps 767 mmHg 54%
    20:00 +7°C° 0 mm 3 mps 768 mmHg 61%
    21:00 +7°C° 0 mm 2 mps 768 mmHg 60%
    22:00 +6°C° 0 mm 2 mps 768 mmHg 60%
    23:00 +7°C° 0 mm 1 mps 768 mmHg 60%

    Tomorrow, 24 March, Sunday

    Time Temperature Precipitation Wind Pressure Humidity
    00:00 +7°C° 0 mm 1 mps 768 mmHg 59%
    01:00 +6°C° 0 mm 2 mps 768 mmHg 58%
    02:00 +4°C° 0 mm 3 mps 768 mmHg 57%
    03:00 +4°C° 0 mm 3 mps 767 mmHg 56%
    04:00 +4°C° 0 mm 4 mps 767 mmHg 55%
    05:00 +3°C° 0 mm 5 mps 767 mmHg 54%
    06:00 +3°C° 0 mm 5 mps 767 mmHg 54%
    07:00 +5°C° 0 mm 5 mps 767 mmHg 54%
    08:00 +5°C° 0 mm 6 mps 767 mmHg 54%
    09:00 +7°C° 0 mm 5 mps 767 mmHg 51%
    10:00 +8°C° 0 mm 5 mps 767 mmHg 49%
    11:00 +10°C° 0 mm 4 mps 767 mmHg 46%
    12:00 +10°C° 0 mm 4 mps 767 mmHg 46%
    13:00 +11°C° 0 mm 4 mps 767 mmHg 46%
    14:00 +11°C° 0 mm 4 mps 766 mmHg 46%
    15:00 +10°C° 0 mm 4 mps 766 mmHg 50%
    16:00 +8°C° 0 mm 4 mps 766 mmHg 55%
    17:00 +8°C° 0 mm 4 mps 765 mmHg 59%
    18:00 +8°C° 0 mm 3 mps 765 mmHg 63%
    19:00 +7°C° 0 mm 3 mps 765 mmHg 67%
    20:00 +6°C° 0 mm 2 mps 765 mmHg 70%
    21:00 +6°C° 0 mm 2 mps 765 mmHg 71%
    22:00 +6°C° 0 mm 2 mps 765 mmHg 71%
    23:00 +6°C° 0 mm 2 mps 765 mmHg 72%

    Day after tomorrow, 25 March, Monday

    Time Temperature Precipitation Wind Pressure Humidity
    00:00 +5°C° 0 mm 3 mps 765 mmHg 72%
    01:00 +5°C° 0 mm 3 mps 765 mmHg 72%
    02:00 +5°C° 0 mm 3 mps 764 mmHg 73%
    03:00 +5°C° 0 mm 3 mps 764 mmHg 73%
    04:00 +5°C° 0 mm 4 mps 763 mmHg 73%
    05:00 +5°C° 0 mm 4 mps 763 mmHg 73%
    06:00 +6°C° 0 mm 4 mps 763 mmHg 70%
    07:00 +7°C° 0 mm 4 mps 763 mmHg 67%
    08:00 +7°C° 0 mm 4 mps 763 mmHg 64%
    09:00 +10°C° 0 mm 4 mps 762 mmHg 59%
    10:00 +11°C° 0 mm 4 mps 762 mmHg 54%
    11:00 +13°C° 0 mm 4 mps 762 mmHg 49%
    12:00 +13°C° 0 mm 5 mps 761 mmHg 49%
    13:00 +13°C° 0 mm 5 mps 761 mmHg 49%
    14:00 +14°C° 0 mm 6 mps 760 mmHg 49%
    15:00 +13°C° 0 mm 6 mps 760 mmHg 53%
    16:00 +11°C° 0 mm 7 mps 759 mmHg 58%
    17:00 +10°C° 0 mm 7 mps 759 mmHg 63%
    18:00 +9°C° 0 mm 7 mps 759 mmHg 67%
    19:00 +8°C° 0 mm 7 mps 759 mmHg 71%
    20:00 +8°C° 0 mm 7 mps 759 mmHg 75%
    21:00 +8°C° 0 mm 7 mps 759 mmHg 77%
    22:00 +7°C° 0 mm 6 mps 758 mmHg 78%
    23:00 +7°C° 0 mm 6 mps 758 mmHg 80%

    26 March, Tuesday

    Time Temperature Precipitation Wind Pressure Humidity
    00:00 +7°C° 0 mm 6 mps 758 mmHg 81%
    01:00 +7°C° 0 mm 6 mps 758 mmHg 83%
    02:00 +7°C° 0 mm 6 mps 758 mmHg 85%
    03:00 +7°C° 0 mm 6 mps 758 mmHg 85%
    04:00 +7°C° 0 mm 5 mps 758 mmHg 85%
    05:00 +7°C° 0 mm 5 mps 757 mmHg 85%
    06:00 +8°C° 0 mm 5 mps 758 mmHg 81%
    07:00 +8°C° 0 mm 4 mps 758 mmHg 78%
    08:00 +10°C° 0 mm 4 mps 758 mmHg 74%
    09:00 +11°C° 0 mm 4 mps 758 mmHg 69%
    10:00 +13°C° 0 mm 4 mps 759 mmHg 64%
    11:00 +14°C° 0 mm 4 mps 759 mmHg 59%
    12:00 +13°C° 0 mm 5 mps 759 mmHg 62%
    13:00 +13°C° 0 mm 5 mps 759 mmHg 65%
    14:00 +11°C° 0 mm 6 mps 759 mmHg 67%
    15:00 +10°C° 0 mm 8 mps 760 mmHg 68%
    16:00 +8°C° 0 mm 9 mps 760 mmHg 70%
    17:00 +7°C° 0 mm 10 mps 760 mmHg 71%
    18:00 +6°C° 0 mm 10 mps 761 mmHg 69%
    19:00 +6°C° 0 mm 9 mps 762 mmHg 68%
    20:00 +6°C° 0 mm 8 mps 762 mmHg 67%
    21:00 +6°C° 0 mm 8 mps 763 mmHg 65%
    22:00 +6°C° 0 mm 8 mps 763 mmHg 64%
    23:00 +6°C° 0 mm 8 mps 763 mmHg 63%

    27 March, Wednesday

    Time Temperature Precipitation Wind Pressure Humidity
    00:00 +5°C° 0 mm 9 mps 763 mmHg 64%
    01:00 +5°C° 0 mm 9 mps 764 mmHg 65%
    02:00 +3°C° 0 mm 10 mps 764 mmHg 66%
    03:00 +3°C° 0 mm 10 mps 764 mmHg 67%
    04:00 +3°C° 0 mm 10 mps 764 mmHg 69%
    05:00 +2°C° 0 mm 10 mps 765 mmHg 70%
    06:00 +2°C° 0 mm 10 mps 765 mmHg 69%
    07:00 +3°C° 0 mm 10 mps 766 mmHg 67%
    08:00 +3°C° 0 mm 10 mps 766 mmHg 65%
    09:00 +5°C° 0 mm 9 mps 766 mmHg 60%
    10:00 +6°C° 0 mm 9 mps 767 mmHg 54%
    11:00 +7°C° 0 mm 8 mps 767 mmHg 49%
    12:00 +7°C° 0 mm 8 mps 767 mmHg 47%
    13:00 +8°C° 0 mm 7 mps 767 mmHg 45%
    14:00 +9°C° 0 mm 7 mps 767 mmHg 43%
    15:00 +8°C° 0 mm 7 mps 767 mmHg 44%
    16:00 +8°C° 0 mm 6 mps 767 mmHg 45%
    17:00 +8°C° 0 mm 6 mps 767 mmHg 47%
    18:00 +7°C° 0 mm 5 mps 767 mmHg 51%
    19:00 +6°C° 0 mm 5 mps 767 mmHg 55%
    20:00 +5°C° 0 mm 4 mps 768 mmHg 59%
    21:00 +5°C° 0 mm 3 mps 768 mmHg 59%
    22:00 +4°C° 0 mm 3 mps 768 mmHg 60%
    23:00 +5°C° 0 mm 2 mps 768 mmHg 61%

    28 March, Thursday

    Time Temperature Precipitation Wind Pressure Humidity
    00:00 +4°C° 0 mm 3 mps 768 mmHg 60%
    01:00 +4°C° 0 mm 3 mps 768 mmHg 60%
    02:00 +4°C° 0 mm 4 mps 768 mmHg 59%
    03:00 +3°C° 0 mm 5 mps 768 mmHg 61%
    04:00 +3°C° 0 mm 6 mps 768 mmHg 62%
    05:00 +3°C° 0 mm 7 mps 768 mmHg 64%
    06:00 +2°C° 0 mm 8 mps 768 mmHg 62%
    07:00 +4°C° 0 mm 8 mps 769 mmHg 60%
    08:00 +4°C° 0 mm 8 mps 769 mmHg 58%
    09:00 +5°C° 0 mm 8 mps 769 mmHg 54%
    10:00 +6°C° 0 mm 8 mps 769 mmHg 49%
    11:00 +6°C° 0 mm 8 mps 770 mmHg 45%
    12:00 +6°C° 0 mm 8 mps 769 mmHg 45%
    13:00 +7°C° 0 mm 8 mps 769 mmHg 45%
    14:00 +7°C° 0 mm 8 mps 769 mmHg 44%
    15:00 +6°C° 0 mm 8 mps 769 mmHg 46%
    16:00 +6°C° 0 mm 8 mps 769 mmHg 47%
    17:00 +6°C° 0 mm 8 mps 769 mmHg 49%
    18:00 +5°C° 0 mm 7 mps 769 mmHg 53%
    19:00 +4°C° 0 mm 6 mps 769 mmHg 57%
    20:00 +3°C° 0 mm 6 mps 769 mmHg 60%
    21:00 +3°C° 0 mm 5 mps 769 mmHg 61%
    22:00 +3°C° 0 mm 5 mps 770 mmHg 62%
    23:00 +3°C° 0 mm 5 mps 770 mmHg 63%
    Show more